Time,TemperatureF,DewpointF,PressureIn,WindDirection,WindDirectionDegrees,WindSpeedMPH,WindSpeedGustMPH,Humidity,HourlyPrecipIn,Conditions,Clouds,dailyrainin,SolarRadiationWatts/m^2,SoftwareType,DateUTC
2013-03-08 00:01:00,34.0,30.0,-100.00,North,-999,-999.0,4.0,85,0.00,,,-99.99,0.000000,,2013-03-08 07:01:00,
2013-03-08 00:11:00,33.0,29.0,-100.00,North,-999,-999.0,4.0,85,0.00,,,-99.99,0.000000,,2013-03-08 07:11:00,
2013-03-08 00:21:00,33.0,29.0,-100.00,North,-999,-999.0,4.0,85,0.00,,,-99.99,0.000000,,2013-03-08 07:21:00,
2013-03-08 00:31:00,34.0,31.0,-100.00,North,-999,-999.0,3.0,87,0.00,,,-99.99,0.000000,,2013-03-08 07:31:00,
2013-03-08 00:41:00,33.0,30.0,-100.00,North,-999,-999.0,4.0,86,0.00,,,-99.99,0.000000,,2013-03-08 07:41:00,
2013-03-08 00:51:00,34.0,31.0,-100.00,North,-999,-999.0,5.0,89,0.00,,,-99.99,0.000000,,2013-03-08 07:51:00,
2013-03-08 01:01:00,34.0,31.0,-100.00,North,-999,-999.0,4.0,88,0.00,,,-99.99,0.000000,,2013-03-08 08:01:00,
2013-03-08 01:11:00,34.0,31.0,-100.00,North,-999,-999.0,3.0,88,0.00,,,-99.99,0.000000,,2013-03-08 08:11:00,
2013-03-08 01:21:00,34.0,31.0,-100.00,North,-999,-999.0,3.0,89,0.00,,,-99.99,0.000000,,2013-03-08 08:21:00,
2013-03-08 01:31:00,34.0,31.0,-100.00,North,-999,-999.0,3.0,89,0.00,,,-99.99,0.000000,,2013-03-08 08:31:00,
2013-03-08 01:41:00,33.0,30.0,-100.00,North,-999,-999.0,4.0,88,0.00,,,-99.99,0.000000,,2013-03-08 08:41:00,
2013-03-08 01:50:00,34.0,31.0,-100.00,North,-999,-999.0,3.0,88,0.00,,,-99.99,0.000000,,2013-03-08 08:50:00,
2013-03-08 01:52:00,33.0,31.0,-100.00,North,-999,-999.0,6.0,91,0.00,,,-99.99,0.000000,,2013-03-08 08:52:00,
2013-03-08 02:02:00,34.0,31.0,-100.00,North,-999,-999.0,3.0,91,0.00,,,-99.99,0.000000,,2013-03-08 09:02:00,
2013-03-08 02:11:00,34.0,31.0,-100.00,North,-999,-999.0,3.0,88,0.00,,,-99.99,0.000000,,2013-03-08 09:11:00,
2013-03-08 02:21:00,34.0,31.0,-100.00,North,-999,-999.0,3.0,88,0.00,,,-99.99,0.000000,,2013-03-08 09:21:00,
2013-03-08 02:31:00,34.0,31.0,-100.00,North,-999,-999.0,3.0,88,0.00,,,-99.99,0.000000,,2013-03-08 09:31:00,
2013-03-08 02:42:00,34.0,31.0,-100.00,North,-999,-999.0,3.0,88,0.00,,,-99.99,0.000000,,2013-03-08 09:42:00,
2013-03-08 03:21:00,36.0,31.0,-100.00,North,-999,-999.0,10.0,83,0.00,,,-99.99,0.000000,,2013-03-08 10:21:00,
2013-03-08 03:32:00,36.0,31.0,-100.00,North,-999,-999.0,9.0,82,0.00,,,-99.99,0.000000,,2013-03-08 10:32:00,
2013-03-08 03:42:00,36.0,31.0,-100.00,North,-999,-999.0,6.0,82,0.00,,,-99.99,0.000000,,2013-03-08 10:42:00,
2013-03-08 03:52:00,36.0,31.0,-100.00,North,-999,-999.0,7.0,83,0.00,,,-99.99,0.000000,,2013-03-08 10:52:00,
2013-03-08 04:01:00,35.0,31.0,-100.00,North,-999,-999.0,6.0,86,0.00,,,-99.99,0.000000,,2013-03-08 11:01:00,
2013-03-08 04:11:00,35.0,32.0,-100.00,North,-999,-999.0,6.0,87,0.00,,,-99.99,0.000000,,2013-03-08 11:11:00,
2013-03-08 04:21:00,35.0,32.0,-100.00,North,-999,-999.0,6.0,88,0.00,,,-99.99,0.000000,,2013-03-08 11:21:00,
2013-03-08 04:32:00,35.0,32.0,-100.00,North,-999,-999.0,4.0,87,0.00,,,-99.99,0.000000,,2013-03-08 11:32:00,
2013-03-08 04:41:00,36.0,32.0,-100.00,North,-999,-999.0,3.0,86,0.00,,,-99.99,0.000000,,2013-03-08 11:41:00,
2013-03-08 04:52:00,35.0,31.0,-100.00,North,-999,-999.0,4.0,86,0.00,,,-99.99,0.000000,,2013-03-08 11:52:00,
2013-03-08 05:01:00,35.0,31.0,-100.00,North,-999,-999.0,5.0,86,0.00,,,-99.99,0.000000,,2013-03-08 12:01:00,
2013-03-08 05:11:00,35.0,31.0,-100.00,North,-999,-999.0,3.0,86,0.00,,,-99.99,0.000000,,2013-03-08 12:11:00,
2013-03-08 05:22:00,35.0,31.0,-100.00,North,-999,-999.0,3.0,86,0.00,,,-99.99,0.000000,,2013-03-08 12:22:00,
2013-03-08 05:32:00,35.0,31.0,-100.00,North,-999,-999.0,2.0,87,0.00,,,-99.99,0.000000,,2013-03-08 12:32:00,
2013-03-08 05:42:00,34.0,31.0,-100.00,North,-999,-999.0,3.0,87,0.00,,,-99.99,0.000000,,2013-03-08 12:42:00,
2013-03-08 05:52:00,34.0,31.0,-100.00,North,-999,-999.0,4.0,89,0.00,,,-99.99,0.000000,,2013-03-08 12:52:00,
2013-03-08 06:01:00,34.0,31.0,-100.00,North,-999,-999.0,5.0,90,0.00,,,-99.99,0.000000,,2013-03-08 13:01:00,
2013-03-08 06:11:00,34.0,32.0,-100.00,North,-999,-999.0,4.0,89,0.00,,,-99.99,0.000000,,2013-03-08 13:11:00,
2013-03-08 06:21:00,34.0,31.0,-100.00,North,-999,-999.0,6.0,90,0.00,,,-99.99,0.000000,,2013-03-08 13:21:00,
2013-03-08 06:32:00,34.0,31.0,-100.00,North,-999,-999.0,6.0,91,0.00,,,-99.99,0.000000,,2013-03-08 13:32:00,
2013-03-08 06:42:00,34.0,32.0,-100.00,North,-999,-999.0,4.0,92,0.00,,,-99.99,0.000000,,2013-03-08 13:42:00,
2013-03-08 06:50:00,35.0,33.0,-100.00,North,-999,-999.0,4.0,92,0.00,,,-99.99,1.000000,,2013-03-08 13:50:00,
2013-03-08 06:52:00,34.0,32.0,-100.00,North,-999,-999.0,4.0,93,0.00,,,-99.99,0.000000,,2013-03-08 13:52:00,
2013-03-08 07:02:00,34.0,32.0,-100.00,North,-999,-999.0,4.0,93,0.00,,,-99.99,0.000000,,2013-03-08 14:02:00,
2013-03-08 07:11:00,35.0,33.0,-100.00,North,-999,-999.0,4.0,92,0.00,,,-99.99,1.000000,,2013-03-08 14:11:00,
2013-03-08 07:21:00,35.0,33.0,-100.00,North,-999,-999.0,4.0,92,0.00,,,-99.99,1.000000,,2013-03-08 14:21:00,
2013-03-08 07:32:00,35.0,33.0,-100.00,North,-999,-999.0,4.0,92,0.00,,,-99.99,1.000000,,2013-03-08 14:32:00,
2013-03-08 07:42:00,35.0,33.0,-100.00,North,-999,-999.0,4.0,92,0.00,,,-99.99,1.000000,,2013-03-08 14:42:00,
2013-03-08 08:22:00,36.0,32.0,-100.00,North,-999,-999.0,6.0,87,0.00,,,-99.99,93.000000,,2013-03-08 15:22:00,
2013-03-08 08:32:00,36.0,33.0,-100.00,North,-999,-999.0,4.0,86,0.00,,,-99.99,119.000000,,2013-03-08 15:32:00,
2013-03-08 08:43:00,37.0,33.0,-100.00,North,-999,-999.0,4.0,84,0.00,,,-99.99,141.000000,,2013-03-08 15:43:00,
2013-03-08 08:53:00,38.0,33.0,-100.00,North,-999,-999.0,4.0,81,0.00,,,-99.99,163.000000,,2013-03-08 15:53:00,
2013-03-08 09:01:00,39.0,33.0,-100.00,North,-999,-999.0,3.0,79,0.00,,,-99.99,174.000000,,2013-03-08 16:01:00,
2013-03-08 09:11:00,39.0,33.0,-100.00,North,-999,-999.0,3.0,77,0.00,,,-99.99,179.000000,,2013-03-08 16:11:00,
2013-03-08 09:21:00,39.0,33.0,-100.00,North,-999,-999.0,3.0,78,0.00,,,-99.99,192.000000,,2013-03-08 16:21:00,
2013-03-08 09:31:00,39.0,33.0,-100.00,North,-999,-999.0,4.0,78,0.00,,,-99.99,210.000000,,2013-03-08 16:31:00,
2013-03-08 09:41:00,40.0,32.0,-100.00,North,-999,-999.0,3.0,75,0.00,,,-99.99,240.000000,,2013-03-08 16:41:00,
2013-03-08 09:51:00,40.0,32.0,-100.00,North,-999,-999.0,2.0,73,0.00,,,-99.99,256.000000,,2013-03-08 16:51:00,
2013-03-08 10:02:00,41.0,33.0,-100.00,North,-999,-999.0,3.0,74,0.00,,,-99.99,217.000000,,2013-03-08 17:02:00,
2013-03-08 10:11:00,41.0,32.0,-100.00,North,-999,-999.0,4.0,72,0.00,,,-99.99,225.000000,,2013-03-08 17:11:00,
2013-03-08 10:21:00,41.0,32.0,-100.00,North,-999,-999.0,4.0,72,0.00,,,-99.99,276.000000,,2013-03-08 17:21:00,
2013-03-08 10:31:00,41.0,33.0,-100.00,North,-999,-999.0,4.0,72,0.00,,,-99.99,317.000000,,2013-03-08 17:31:00,
2013-03-08 10:41:00,42.0,33.0,-100.00,North,-999,-999.0,5.0,70,0.00,,,-99.99,374.000000,,2013-03-08 17:41:00,
2013-03-08 10:52:00,43.0,33.0,-100.00,North,-999,-999.0,4.0,68,0.00,,,-99.99,415.000000,,2013-03-08 17:52:00,
2013-03-08 11:01:00,43.0,33.0,-100.00,North,-999,-999.0,6.0,67,0.00,,,-99.99,404.000000,,2013-03-08 18:01:00,
2013-03-08 11:11:00,42.0,32.0,-100.00,North,-999,-999.0,7.0,67,0.00,,,-99.99,414.000000,,2013-03-08 18:11:00,
2013-03-08 11:21:00,43.0,32.0,-100.00,North,-999,-999.0,7.0,67,0.00,,,-99.99,417.000000,,2013-03-08 18:21:00,
2013-03-08 11:31:00,43.0,33.0,-100.00,North,-999,-999.0,9.0,68,0.00,,,-99.99,473.000000,,2013-03-08 18:31:00,
2013-03-08 11:42:00,43.0,33.0,-100.00,North,-999,-999.0,9.0,67,0.00,,,-99.99,384.000000,,2013-03-08 18:42:00,
2013-03-08 11:50:00,43.0,32.0,-100.00,North,-999,-999.0,6.0,65,0.00,,,-99.99,346.000000,,2013-03-08 18:50:00,
2013-03-08 11:51:00,43.0,33.0,-100.00,North,-999,-999.0,8.0,69,0.00,,,-99.99,355.000000,,2013-03-08 18:51:00,
2013-03-08 12:01:00,43.0,32.0,-100.00,North,-999,-999.0,7.0,66,0.00,,,-99.99,360.000000,,2013-03-08 19:01:00,
2013-03-08 12:11:00,43.0,32.0,-100.00,North,-999,-999.0,6.0,65,0.00,,,-99.99,346.000000,,2013-03-08 19:11:00,
2013-03-08 12:21:00,43.0,32.0,-100.00,North,-999,-999.0,6.0,65,0.00,,,-99.99,346.000000,,2013-03-08 19:21:00,
2013-03-08 12:31:00,43.0,32.0,-100.00,North,-999,-999.0,6.0,65,0.00,,,-99.99,346.000000,,2013-03-08 19:31:00,
2013-03-08 12:41:00,43.0,32.0,-100.00,North,-999,-999.0,6.0,65,0.00,,,-99.99,346.000000,,2013-03-08 19:41:00,
2013-03-08 13:22:00,45.0,33.0,-100.00,North,-999,-999.0,8.0,62,0.00,,,-99.99,365.000000,,2013-03-08 20:22:00,
2013-03-08 13:32:00,45.0,33.0,-100.00,North,-999,-999.0,10.0,63,0.00,,,-99.99,297.000000,,2013-03-08 20:32:00,
2013-03-08 13:42:00,44.0,33.0,-100.00,North,-999,-999.0,8.0,63,0.00,,,-99.99,234.000000,,2013-03-08 20:42:00,
2013-03-08 13:53:00,44.0,33.0,-100.00,North,-999,-999.0,8.0,64,0.00,,,-99.99,211.000000,,2013-03-08 20:53:00,
2013-03-08 14:01:00,44.0,33.0,-100.00,North,-999,-999.0,7.0,64,0.00,,,-99.99,175.000000,,2013-03-08 21:01:00,
2013-03-08 14:11:00,44.0,33.0,-100.00,North,-999,-999.0,9.0,63,0.00,,,-99.99,164.000000,,2013-03-08 21:11:00,
2013-03-08 14:21:00,45.0,33.0,-100.00,North,-999,-999.0,8.0,65,0.00,,,-99.99,169.000000,,2013-03-08 21:21:00,
2013-03-08 14:32:00,44.0,33.0,-100.00,North,-999,-999.0,8.0,63,0.00,,,-99.99,163.000000,,2013-03-08 21:32:00,
2013-03-08 14:41:00,45.0,33.0,-100.00,North,-999,-999.0,7.0,64,0.00,,,-99.99,129.000000,,2013-03-08 21:41:00,
2013-03-08 14:51:00,44.0,35.0,-100.00,North,-999,-999.0,9.0,69,0.00,,,-99.99,99.000000,,2013-03-08 21:51:00,
2013-03-08 15:01:00,44.0,35.0,-100.00,North,-999,-999.0,11.0,69,0.00,,,-99.99,99.000000,,2013-03-08 22:01:00,
2013-03-08 15:11:00,44.0,34.0,-100.00,North,-999,-999.0,9.0,69,0.00,,,-99.99,88.000000,,2013-03-08 22:11:00,
2013-03-08 15:21:00,43.0,35.0,-100.00,North,-999,-999.0,7.0,73,0.00,,,-99.99,77.000000,,2013-03-08 22:21:00,
2013-03-08 15:32:00,43.0,36.0,-100.00,North,-999,-999.0,8.0,78,0.00,,,-99.99,90.000000,,2013-03-08 22:32:00,
2013-03-08 15:41:00,42.0,36.0,-100.00,North,-999,-999.0,10.0,80,0.00,,,-99.99,85.000000,,2013-03-08 22:41:00,
2013-03-08 15:52:00,42.0,37.0,-100.00,North,-999,-999.0,8.0,82,0.00,,,-99.99,66.000000,,2013-03-08 22:52:00,
2013-03-08 16:01:00,42.0,37.0,-100.00,North,-999,-999.0,6.0,83,0.00,,,-99.99,73.000000,,2013-03-08 23:01:00,
2013-03-08 16:11:00,42.0,37.0,-100.00,North,-999,-999.0,6.0,82,0.00,,,-99.99,67.000000,,2013-03-08 23:11:00,
2013-03-08 16:21:00,42.0,37.0,-100.00,North,-999,-999.0,7.0,84,0.00,,,-99.99,53.000000,,2013-03-08 23:21:00,
2013-03-08 16:31:00,42.0,37.0,-100.00,North,-999,-999.0,6.0,84,0.00,,,-99.99,50.000000,,2013-03-08 23:31:00,
2013-03-08 16:41:00,42.0,37.0,-100.00,North,-999,-999.0,5.0,84,0.00,,,-99.99,45.000000,,2013-03-08 23:41:00,
2013-03-08 16:50:00,41.0,38.0,-100.00,North,-999,-999.0,7.0,87,0.00,,,-99.99,43.000000,,2013-03-08 23:50:00,
2013-03-08 16:52:00,42.0,38.0,-100.00,North,-999,-999.0,5.0,86,0.00,,,-99.99,44.000000,,2013-03-08 23:52:00,
2013-03-08 17:01:00,41.0,38.0,-100.00,North,-999,-999.0,5.0,87,0.00,,,-99.99,37.000000,,2013-03-09 00:01:00,
2013-03-08 17:11:00,41.0,38.0,-100.00,North,-999,-999.0,7.0,87,0.00,,,-99.99,43.000000,,2013-03-09 00:11:00,
2013-03-08 17:21:00,41.0,38.0,-100.00,North,-999,-999.0,7.0,87,0.00,,,-99.99,43.000000,,2013-03-09 00:21:00,
2013-03-08 17:31:00,41.0,38.0,-100.00,North,-999,-999.0,7.0,87,0.00,,,-99.99,43.000000,,2013-03-09 00:31:00,
2013-03-08 17:41:00,41.0,38.0,-100.00,North,-999,-999.0,7.0,87,0.00,,,-99.99,43.000000,,2013-03-09 00:41:00,
2013-03-08 20:11:00,39.0,36.0,-100.00,North,-999,-999.0,7.0,88,0.00,,,-99.99,0.000000,,2013-03-09 03:11:00,
2013-03-08 20:21:00,39.0,36.0,-100.00,North,-999,-999.0,7.0,88,0.00,,,-99.99,0.000000,,2013-03-09 03:21:00,
2013-03-08 20:31:00,39.0,36.0,-100.00,North,-999,-999.0,3.0,89,0.00,,,-99.99,0.000000,,2013-03-09 03:31:00,
2013-03-08 20:41:00,39.0,36.0,-100.00,North,-999,-999.0,4.0,89,0.00,,,-99.99,0.000000,,2013-03-09 03:41:00,
2013-03-08 20:52:00,39.0,36.0,-100.00,North,-999,-999.0,5.0,89,0.00,,,-99.99,0.000000,,2013-03-09 03:52:00,
2013-03-08 21:01:00,39.0,37.0,-100.00,North,-999,-999.0,5.0,90,0.00,,,-99.99,0.000000,,2013-03-09 04:01:00,
2013-03-08 21:11:00,39.0,37.0,-100.00,North,-999,-999.0,7.0,91,0.00,,,-99.99,0.000000,,2013-03-09 04:11:00,
2013-03-08 21:21:00,39.0,37.0,-100.00,North,-999,-999.0,7.0,92,0.00,,,-99.99,0.000000,,2013-03-09 04:21:00,
2013-03-08 21:31:00,39.0,37.0,-100.00,North,-999,-999.0,9.0,91,0.00,,,-99.99,0.000000,,2013-03-09 04:31:00,
2013-03-08 21:41:00,39.0,37.0,-100.00,North,-999,-999.0,9.0,91,0.00,,,-99.99,0.000000,,2013-03-09 04:41:00,
2013-03-08 21:50:00,39.0,36.0,-100.00,North,-999,-999.0,9.0,89,0.00,,,-99.99,0.000000,,2013-03-09 04:50:00,
2013-03-08 21:51:00,39.0,36.0,-100.00,North,-999,-999.0,13.0,90,0.00,,,-99.99,0.000000,,2013-03-09 04:51:00,
2013-03-08 22:01:00,39.0,36.0,-100.00,North,-999,-999.0,11.0,89,0.00,,,-99.99,0.000000,,2013-03-09 05:01:00,
2013-03-08 22:11:00,39.0,36.0,-100.00,North,-999,-999.0,9.0,89,0.00,,,-99.99,0.000000,,2013-03-09 05:11:00,
2013-03-08 22:21:00,39.0,36.0,-100.00,North,-999,-999.0,9.0,89,0.00,,,-99.99,0.000000,,2013-03-09 05:21:00,
2013-03-08 22:31:00,39.0,36.0,-100.00,North,-999,-999.0,9.0,89,0.00,,,-99.99,0.000000,,2013-03-09 05:31:00,
2013-03-08 22:42:00,39.0,36.0,-100.00,North,-999,-999.0,9.0,89,0.00,,,-99.99,0.000000,,2013-03-09 05:42:00,
2013-03-08 23:22:00,38.0,36.0,-100.00,North,-999,-999.0,5.0,90,0.00,,,-99.99,0.000000,,2013-03-09 06:22:00,
2013-03-08 23:32:00,38.0,36.0,-100.00,North,-999,-999.0,6.0,90,0.00,,,-99.99,0.000000,,2013-03-09 06:32:00,
2013-03-08 23:42:00,38.0,36.0,-100.00,North,-999,-999.0,6.0,91,0.00,,,-99.99,0.000000,,2013-03-09 06:42:00,
2013-03-08 23:52:00,38.0,36.0,-100.00,North,-999,-999.0,6.0,91,0.00,,,-99.99,0.000000,,2013-03-09 06:52:00,